[[{"header":{"parameterUnit":"m.s-1","parameterCategory":1,"la1":30.2991,"la2":30.254,"lo1":-89.0895,"lo2":-89.0444,"dy":0.0017,"dx":0.0017,"nx":28,"ny":28,"refTime":"2025-01-30T09:00:00:Z","depth":0,"parameterNumber":2,"parameterNumberName":"U-component_of_WINDS"},"data":[0,0,0,0,0,0,0,0,0,0,0,0,0,0,0,0,0,0,0,0,0,0,0,0,0,0,0,0,0,0,0,0,0,0,0,0,0,0,0,0,0,0,0,0,0,0,0,0,0,0,0,0,0,0,0,0,0,0,-2.0412,-2.0412,0,-2.0431,-2.0432,-2.0432,-2.0379,-2.0378,-2.0376,-2.0374,-2.0395,-2.0397,-2.0399,0,0,0,0,0,0,0,0,0,0,0,0,0,-2.0332,-2.0334,-2.0412,-2.0412,-2.0413,-2.0431,-2.0432,-2.0432,-2.038,-2.0378,-2.0376,-2.0374,-2.0394,-2.0397,-2.0399,0,0,0,0,0,0,0,0,0,0,0,0,0,-2.036,-2.0334,-2.0412,-2.0389,-2.0387,-2.0431,-2.0432,-2.0432,-2.038,-2.0377,-2.0375,-2.0373,-2.0394,-2.0397,-2.04,-2.0468,0,0,-2.0409,-2.041,0,0,0,0,0,0,0,0,-2.0359,-2.0363,-2.0392,-2.039,-2.0388,-2.04,-2.0411,-2.0444,-2.0381,-2.0383,-2.0374,-2.0372,-2.0399,-2.0401,-2.041,-2.0469,-2.047,-2.0409,-2.0411,-2.0413,-2.0413,0,0,0,0,0,0,0,-2.0357,-2.0362,-2.042,-2.0392,-2.039,-2.0378,-2.0379,-2.0417,-2.0404,-2.0382,-2.0378,-2.0381,-2.0397,-2.0407,-2.041,-2.047,-2.0409,-2.0412,-2.0414,-2.0415,-2.0586,-2.0589,0,0,0,0,0,0,-2.0358,-2.0361,-2.0419,-2.042,-2.0367,-2.0381,-2.0383,-2.0399,-2.0404,-2.0402,-2.0383,-2.0379,-2.0403,-2.0407,-2.0411,-2.0491,-2.0413,-2.0415,-2.0417,-2.0584,-2.0587,-2.059,0,0,0,0,0,0,-2.0356,-2.0364,-2.0418,-2.039,-2.0396,-2.0385,-2.0404,-2.0401,-2.0411,-2.0405,-2.0402,-2.0396,-2.0402,-2.0407,-2.0454,-2.0491,-2.0417,-2.042,-2.058,-2.0585,-2.0588,-2.0653,0,0,0,0,0,0,-2.0354,-2.0363,-2.0389,-2.0391,-2.0397,-2.0461,-2.0406,-2.0403,-2.0416,-2.041,-2.0416,-2.0414,-2.04,-2.045,-2.0457,-2.0494,-2.0422,-2.0577,-2.0582,-2.0587,-2.0647,-2.0658,-2.0668,0,0,0,0,0,-2.0352,-2.0406,-2.039,-2.0397,-2.0429,-2.0463,-2.0467,-2.0449,-2.0419,-2.0445,-2.0441,-2.0414,-2.0486,-2.0455,-2.0463,-2.0502,-2.0575,-2.0581,-2.0587,-2.0643,-2.0656,-2.0668,0,0,0,0,0,0,-2.0408,-2.0406,-2.0388,-2.0445,-2.0455,-2.0454,-2.0486,-2.0464,-2.0483,-2.0477,-2.0454,-2.0456,-2.0508,-2.051,-2.0475,-2.0568,-2.0525,-2.0533,-2.0565,-2.0578,-2.0588,-2.0587,-2.0425,0,0,0,0,0,-2.0428,-2.0455,-2.0452,-2.0502,-2.0508,-2.0496,-2.0511,-2.0496,-2.0506,-2.0509,-2.0509,-2.052,-2.0545,-2.0562,-2.0584,-2.0648,-2.0648,-2.0678,-2.0689,-2.0697,-2.0704,-2.0738,-2.0752,-2.061,-2.0609,-2.0609,0,0,-2.0467,-2.0469,-2.0488,-2.0514,-2.0519,-2.0549,-2.05,-2.0533,-2.0555,-2.0515,-2.0559,-2.056,-2.057,-2.0626,-2.0651,-2.0629,-2.0744,-2.0705,-2.0712,-2.0714,-2.0746,-2.0759,-2.0771,-2.0614,-2.0613,-2.0612,0,0,-2.0555,-2.0559,-2.0602,-2.0609,-2.0619,-2.0611,-2.0621,-2.0625,-2.0623,-2.0668,-2.0638,-2.0665,-2.0708,-2.0717,-2.0727,-2.082,-2.0795,-2.0828,-2.0882,-2.0916,-2.0927,-2.0937,-2.097,-2.0982,-2.0835,-2.0835,-2.0835,0,-2.0603,-2.0646,-2.0627,-2.0662,-2.0675,-2.0639,-2.0683,-2.0691,-2.0708,-2.0717,-2.0693,-2.0747,-2.0752,-2.081,-2.0832,-2.0842,-2.0853,-2.0827,-2.0927,-2.0936,-2.0945,-2.0977,-2.0989,-2.0839,-2.0838,-2.0838,-2.0838,0,-2.0705,-2.0736,-2.0769,-2.0786,-2.0803,-2.0842,-2.0829,-2.0848,-2.0833,-2.0828,-2.0874,-2.0879,-2.0902,-2.0915,-2.09,-2.0971,-2.0957,-2.093,-2.0887,-2.0963,-2.0992,-2.1004,-2.0844,-2.0843,-2.0842,-2.0841,0,0,-2.0828,-2.0835,-2.0847,-2.0855,-2.0864,-2.0887,-2.0926,-2.0948,-2.0965,-2.0979,-2.101,-2.1049,-2.1024,-2.1036,-2.1022,-2.1052,-2.1126,-2.1021,-2.1021,-2.104,-2.1204,-2.1224,-2.1239,-2.111,-2.1112,-2.1114,-2.1203,0,-2.0914,-2.098,-2.0964,-2.1029,-2.1057,-2.1025,-2.1058,-2.1068,-2.1065,-2.1089,-2.1085,-2.1113,-2.1078,-2.1085,-2.1113,-2.1111,-2.1158,-2.1104,-2.114,-2.1141,-2.1138,-2.1254,-2.1275,-2.1359,-2.1215,-2.1217,-2.1218,0,-2.1023,-2.1041,-2.1109,-2.1114,-2.1125,-2.1155,-2.1175,-2.1199,-2.1209,-2.1205,-2.1219,-2.12,-2.1238,-2.1195,-2.1249,-2.1212,-2.1226,-2.1227,-2.123,-2.1232,-2.1184,-2.1259,-2.1385,-2.1398,-2.1236,-2.1234,-2.1233,0,-2.1106,-2.1147,-2.1193,-2.12,-2.1207,-2.123,-2.1234,-2.1242,-2.1257,-2.1275,-2.1284,-2.1307,-2.1319,-2.1337,-2.1325,-2.1294,-2.1381,-2.1336,-2.1378,-2.1379,-2.1397,-2.1396,-2.1527,-2.1407,-2.1407,-2.1407,-2.1407,0,-2.1204,-2.1247,-2.123,-2.1258,-2.1306,-2.1288,-2.1335,-2.1335,-2.1343,-2.1372,-2.1345,-2.1373,-2.1355,-2.1381,-2.1372,-2.1418,-2.1424,-2.1421,-2.1418,-2.1424,-2.1424,-2.1432,-2.1426,-2.141,-2.1409,-2.1409,-2.1408,0,-2.1304,-2.1295,-2.1342,-2.1346,-2.1347,-2.1382,-2.1385,-2.1412,-2.1407,-2.1443,-2.1451,-2.1444,-2.1473,-2.1463,-2.1494,-2.1488,-2.1547,-2.1536,-2.1543,-2.154,-2.1583,-2.1579,-2.1724,-2.1742,-2.161,-2.1612,-2.1613,0,-2.1367,-2.1399,-2.1406,-2.1423,-2.1428,-2.1456,-2.1471,-2.1456,-2.1473,-2.1488,-2.1513,-2.154,-2.1561,-2.161,-2.1608,-2.1632,-2.1622,-2.1671,-2.1625,-2.1629,-2.1622,-2.162,-2.1624,-2.168,-2.1681,-2.1682,-2.1683,0,-2.1479,-2.1473,-2.1496,-2.1518,-2.1537,-2.1553,-2.1568,-2.1583,-2.1568,-2.1589,-2.1619,-2.1635,-2.1667,-2.1695,-2.1717,-2.1722,-2.1701,-2.1698,-2.1709,-2.1714,-2.1717,-2.1716,-2.1568,-2.1694,-2.1693,-2.1692,-2.1692,-2.1691,-2.1562,-2.1589,-2.1599,-2.1625,-2.1635,-2.1649,-2.1674,-2.1673,-2.1697,-2.1722,-2.1712,-2.1746,-2.1757,-2.1785,-2.1793,-2.182,-2.1801,-2.1817,-2.1821,-2.1825,-2.183,-2.1713,-2.1824,-2.1823,-2.1823,-2.1823,-2.1823,0,-2.1673,-2.1678,-2.1703,-2.1723,-2.1745,-2.1723,-2.1738,-2.1757,-2.1788,-2.18,-2.1821,-2.1856,-2.1883,-2.1883,-2.1909,-2.193,-2.1921,-2.1937,-2.1935,-2.1937,-2.1846,-2.1834,-2.1944,-2.1944,-2.1944,-2.1944,-2.1944,-2.1944,-2.1733,-2.1778,-2.1774,-2.1824,-2.1828,-2.1862,-2.1872,-2.1885,-2.1895,-2.1935,-2.1957,-2.1957,-2.1965,-2.1991,-2.2015,-2.2014,-2.2025,-2.2045,-2.2041,-2.1955,-2.1943,-2.1932,-2.192,-2.2047,-2.2047,-2.2129,-2.213,-2.2131]},{"header":{"parameterUnit":"m.s-1","parameterCategory":1,"la1":30.2991,"la2":30.254,"lo1":-89.0895,"lo2":-89.0444,"dy":0.0017,"dx":0.0017,"nx":28,"ny":28,"refTime":"2025-01-30T09:00:00:Z","depth":0,"parameterNumber":3,"parameterNumberName":"V-component_of_WINDS"},"data":[0,0,0,0,0,0,0,0,0,0,0,0,0,0,0,0,0,0,0,0,0,0,0,0,0,0,0,0,0,0,0,0,0,0,0,0,0,0,0,0,0,0,0,0,0,0,0,0,0,0,0,0,0,0,0,0,0,0,0.7187,0.7188,0,0.7245,0.7245,0.7246,0.7276,0.7276,0.7276,0.7276,0.7334,0.7336,0.7337,0,0,0,0,0,0,0,0,0,0,0,0,0,0.7104,0.7106,0.7187,0.7188,0.7189,0.7245,0.7245,0.7246,0.7276,0.7276,0.7276,0.7276,0.7334,0.7335,0.7337,0,0,0,0,0,0,0,0,0,0,0,0,0,0.7149,0.7106,0.7187,0.721,0.7213,0.7244,0.7245,0.7246,0.7276,0.7276,0.7276,0.7276,0.7333,0.7335,0.7338,0.7351,0,0,0.7345,0.7346,0,0,0,0,0,0,0,0,0.7146,0.7152,0.7206,0.7209,0.7212,0.7253,0.7238,0.7281,0.7276,0.7252,0.7276,0.7276,0.7307,0.7312,0.7322,0.7353,0.7356,0.7345,0.7346,0.7347,0.7348,0,0,0,0,0,0,0,0.7143,0.715,0.721,0.7207,0.721,0.7218,0.7224,0.7246,0.7278,0.7254,0.7256,0.7263,0.7309,0.732,0.7324,0.7357,0.7345,0.7347,0.7348,0.7349,0.7403,0.7403,0,0,0,0,0,0,0.7136,0.7147,0.7208,0.7212,0.7178,0.7219,0.7227,0.724,0.7278,0.7284,0.7262,0.7264,0.7316,0.7321,0.7326,0.7345,0.7347,0.7349,0.7351,0.7403,0.7403,0.7403,0,0,0,0,0,0,0.7134,0.7141,0.7206,0.718,0.7189,0.7221,0.7235,0.7241,0.7252,0.7285,0.7291,0.7268,0.7316,0.7323,0.7345,0.7347,0.735,0.7352,0.7403,0.7403,0.7403,0.7382,0,0,0,0,0,0,0.7132,0.7141,0.7146,0.718,0.719,0.7223,0.7235,0.7242,0.7256,0.7258,0.7292,0.7297,0.7317,0.7341,0.7347,0.735,0.7354,0.7403,0.7403,0.7403,0.7383,0.7381,0.738,0,0,0,0,0,0.7129,0.7137,0.7146,0.7153,0.7197,0.7223,0.7229,0.7252,0.7256,0.7262,0.7283,0.7296,0.7346,0.7343,0.735,0.7354,0.7403,0.7403,0.7403,0.7383,0.7382,0.738,0,0,0,0,0,0,0.7102,0.7142,0.7152,0.7172,0.7194,0.7228,0.7236,0.7249,0.7271,0.7272,0.7299,0.7306,0.7326,0.7342,0.7338,0.737,0.7376,0.7377,0.7358,0.7357,0.7356,0.7352,0.7356,0,0,0,0,0,0.7098,0.7116,0.715,0.7164,0.7175,0.7204,0.7216,0.7232,0.7256,0.7265,0.7288,0.7311,0.7332,0.7345,0.7367,0.7385,0.7393,0.7391,0.739,0.7389,0.739,0.7402,0.7402,0.7404,0.7404,0.7404,0,0,0.7091,0.7115,0.7125,0.716,0.7179,0.7197,0.7211,0.723,0.7244,0.7268,0.7291,0.7308,0.7336,0.7356,0.7366,0.737,0.7392,0.7389,0.7388,0.739,0.7403,0.7402,0.7402,0.7404,0.7404,0.7404,0,0,0.7088,0.7107,0.7122,0.7141,0.717,0.7189,0.7192,0.7225,0.7238,0.7261,0.7279,0.7297,0.7332,0.7351,0.7366,0.7371,0.7384,0.7377,0.7371,0.7382,0.7382,0.7382,0.7385,0.7385,0.7377,0.7377,0.7377,0,0.7075,0.7103,0.7127,0.7145,0.7161,0.7183,0.7199,0.7216,0.725,0.7261,0.7264,0.731,0.733,0.7356,0.7358,0.7368,0.7373,0.7373,0.738,0.738,0.7381,0.7384,0.7384,0.7376,0.7377,0.7377,0.7377,0,0.7087,0.7106,0.7115,0.7148,0.7164,0.718,0.7207,0.7221,0.7235,0.7254,0.7277,0.7302,0.7329,0.7337,0.735,0.7365,0.7367,0.7375,0.7382,0.7379,0.7382,0.7384,0.7375,0.7375,0.7376,0.7376,0,0,0.7068,0.7115,0.7117,0.7133,0.7167,0.7183,0.7201,0.7228,0.7239,0.7262,0.7278,0.7308,0.7316,0.7333,0.7349,0.7359,0.7363,0.7367,0.7368,0.7366,0.7381,0.7375,0.7376,0.7371,0.7372,0.7372,0.7379,0,0.707,0.7103,0.7125,0.715,0.7169,0.7191,0.7207,0.723,0.7248,0.7267,0.7287,0.7308,0.7317,0.7327,0.7338,0.736,0.7366,0.736,0.7387,0.7388,0.738,0.7377,0.7371,0.7376,0.738,0.7381,0.7381,0,0.7076,0.7099,0.7125,0.7159,0.7167,0.7181,0.7208,0.7226,0.7252,0.7265,0.7284,0.7301,0.7321,0.7326,0.7355,0.735,0.7363,0.7375,0.7376,0.738,0.7384,0.7382,0.7378,0.7379,0.7383,0.7383,0.7382,0,0.7061,0.7098,0.7119,0.7132,0.7171,0.718,0.7197,0.7223,0.7238,0.7262,0.7272,0.7298,0.7312,0.7331,0.7355,0.7356,0.7382,0.7388,0.7393,0.7393,0.7398,0.7397,0.7397,0.7405,0.7405,0.7405,0.7405,0,0.7061,0.7076,0.7113,0.7126,0.7144,0.717,0.7188,0.7206,0.723,0.7247,0.7268,0.7284,0.7314,0.7333,0.7352,0.7374,0.738,0.7391,0.7396,0.7389,0.7388,0.7398,0.7399,0.7405,0.7405,0.7405,0.7405,0,0.7047,0.7072,0.7096,0.7131,0.714,0.7152,0.7183,0.7196,0.7216,0.7238,0.7244,0.7275,0.7299,0.7325,0.7357,0.737,0.7391,0.7398,0.7382,0.7385,0.7389,0.7389,0.7396,0.7399,0.7404,0.7404,0.7404,0,0.7045,0.7058,0.7094,0.7108,0.7124,0.7145,0.716,0.7187,0.7202,0.7234,0.7244,0.727,0.7292,0.733,0.7356,0.7381,0.7389,0.7389,0.7392,0.7386,0.739,0.7389,0.7391,0.7388,0.7388,0.7388,0.7388,0,0.7041,0.7053,0.7074,0.7101,0.7119,0.7141,0.7164,0.7173,0.7204,0.722,0.7246,0.7263,0.7297,0.7323,0.7351,0.7369,0.7384,0.7387,0.7389,0.7383,0.7374,0.738,0.738,0.7387,0.7387,0.7387,0.7387,0.7387,0.7033,0.7046,0.7074,0.7098,0.7118,0.7139,0.7154,0.7176,0.7197,0.7227,0.7241,0.7267,0.7294,0.7334,0.7352,0.7372,0.7376,0.738,0.7381,0.7382,0.7381,0.7371,0.7377,0.7377,0.7378,0.7378,0.7378,0,0.7031,0.705,0.7072,0.7103,0.7122,0.7134,0.7161,0.7176,0.7198,0.7222,0.7244,0.7273,0.7299,0.7326,0.7353,0.7365,0.7372,0.7371,0.7371,0.7375,0.7375,0.737,0.7365,0.7365,0.7365,0.7365,0.7365,0.7365,0.7031,0.7054,0.7069,0.7102,0.7121,0.7147,0.7161,0.718,0.72,0.7232,0.7254,0.7271,0.7297,0.7327,0.7351,0.7358,0.7368,0.7364,0.7374,0.7374,0.7375,0.7376,0.7371,0.7366,0.7366,0.7372,0.7372,0.7372]}]]